TimeADT,TemperatureF,Dew PointF,Humidity,Sea Level PressureIn,VisibilityMPH,Wind Direction,Wind SpeedMPH,Gust SpeedMPH,PrecipitationIn,Events,Conditions,WindDirDegrees,DateUTC
12:00 AM,48.2,46.4,93,30.25,15.0,SSW,2.3,-,N/A,,Partly Cloudy,210,2013-08-25 03:00:00
1:00 AM,48.2,46.4,93,30.24,15.0,WSW,3.5,-,N/A,,Partly Cloudy,240,2013-08-25 04:00:00
2:00 AM,50.0,46.4,87,30.25,15.0,WSW,4.6,-,N/A,,Partly Cloudy,240,2013-08-25 05:00:00
3:00 AM,45,43,92,30.25,15,West,3.5,,,,,270,2013-08-25 06:00:00
3:00 AM,44.6,42.8,93,30.25,15.0,West,3.5,-,N/A,,Clear,270,2013-08-25 06:00:00
4:00 AM,44.6,42.8,93,30.25,15.0,WSW,3.5,-,N/A,,Clear,240,2013-08-25 07:00:00
5:00 AM,44.6,44.6,100,30.25,15.0,West,3.5,-,N/A,,Clear,260,2013-08-25 08:00:00
6:00 AM,44.6,42.8,93,30.25,15.0,Calm,Calm,-,N/A,,Partly Cloudy,0,2013-08-25 09:00:00
7:00 AM,51.8,50.0,94,30.25,15.0,Calm,Calm,-,N/A,,Partly Cloudy,0,2013-08-25 10:00:00
8:00 AM,57.2,55.4,94,30.27,15.0,South,3.5,-,N/A,,Partly Cloudy,170,2013-08-25 11:00:00
9:00 AM,64,56,68,30.28,15,SSW,6.9,,,,Clear,200,2013-08-25 12:00:00
9:00 AM,64.4,55.4,73,30.27,15.0,SSW,8.1,-,N/A,,Partly Cloudy,200,2013-08-25 12:00:00
10:00 AM,66.2,55.4,68,30.28,15.0,SW,4.6,-,N/A,,Partly Cloudy,230,2013-08-25 13:00:00
11:00 AM,68.0,55.4,64,30.28,15.0,Calm,Calm,-,N/A,,Partly Cloudy,0,2013-08-25 14:00:00
12:00 PM,69.8,57.2,64,30.26,15.0,SE,9.2,-,N/A,,Partly Cloudy,130,2013-08-25 15:00:00
1:00 PM,69.8,57.2,64,30.25,15.0,South,8.1,-,N/A,,Partly Cloudy,180,2013-08-25 16:00:00
2:00 PM,71.6,59.0,64,30.23,15.0,South,9.2,-,N/A,,Partly Cloudy,170,2013-08-25 17:00:00
3:00 PM,72,60,56,30.21,15,SE,5.8,,,,Scattered Clouds,140,2013-08-25 18:00:00
3:00 PM,71.6,59.0,64,30.21,15.0,SSE,5.8,-,N/A,,Partly Cloudy,150,2013-08-25 18:00:00
4:00 PM,73.4,53.6,50,30.20,15.0,SSW,4.6,-,N/A,,Partly Cloudy,210,2013-08-25 19:00:00
5:00 PM,75.2,44.6,34,30.20,15.0,North,6.9,-,N/A,,Partly Cloudy,350,2013-08-25 20:00:00
6:00 PM,73.4,48.2,41,30.19,15.0,NE,8.1,-,N/A,,Partly Cloudy,40,2013-08-25 21:00:00
7:00 PM,69.8,53.6,56,30.19,15.0,NE,6.9,-,N/A,,Partly Cloudy,40,2013-08-25 22:00:00
8:00 PM,62.6,51.8,68,30.18,15.0,East,3.5,-,N/A,,Partly Cloudy,80,2013-08-25 23:00:00
9:00 PM,60,50,61,30.19,15,ESE,4.6,,,,Scattered Clouds,120,2013-08-26 00:00:00
9:00 PM,59.0,50.0,72,30.18,15.0,ESE,4.6,-,N/A,,Partly Cloudy,110,2013-08-26 00:00:00
10:00 PM,60.8,51.8,72,30.18,15.0,SE,5.8,-,N/A,,Partly Cloudy,130,2013-08-26 01:00:00
11:00 PM,59.0,53.6,82,30.17,15.0,SE,5.8,-,N/A,,Partly Cloudy,140,2013-08-26 02:00:00